Date String (YYYY-MM-DD hh:mm:ss) UTC,Instrument flags,Ambient pressure (hPa),Sample flow (lpm),Bypass flow (lpm),Sample temperature (°C),Ambient temperature (°C),ASC tube jacket temperature (°C),LED temperature (°C),Box temperature (°C),Sample RH (%),Span deviation,Mass concentration (μg/m³),Mass concentration (μg/m³),Mass concentration (μg/m³)
DateTimeUTC,F1_M11,P_M11,Q1_M11,Q2_M11,T1_M11,T2_M11,T3_M11,T4_M11,T5_M11,U1_M11,ZSPAN_M11,X0_M11,X2_M11,X1_M11
2023-02-28 23:00:00,,0812.8,4.99,0.00,21.6,21.0,00.0,30.4,23.5,10.0,0000.0,0001.57,0000.50,0000.24
2023-02-28 23:01:00,,0812.9,4.98,0.00,21.8,22.2,00.0,30.4,23.8,10.0,0000.0,0001.60,0000.49,0000.24
2023-02-28 23:02:00,,0812.9,5.01,0.00,21.9,22.7,00.0,30.5,24.0,10.2,0000.0,0001.56,0000.47,0000.24
2023-02-28 23:03:00,,0812.9,4.99,0.00,22.0,22.2,00.0,30.5,24.0,10.1,0000.0,0001.51,0000.46,0000.24
2023-02-28 23:04:00,,0812.9,4.98,0.00,22.0,21.8,00.0,30.5,23.9,10.1,0000.0,0001.55,0000.48,0000.25
2023-02-28 23:05:00,,0812.9,4.99,0.00,22.0,21.4,00.0,30.6,23.8,10.2,0000.0,0001.68,0000.52,0000.26
2023-02-28 23:06:00,,0812.9,4.99,0.00,22.0,21.2,00.0,30.6,23.8,10.3,0000.0,0001.60,0000.50,0000.27
2023-02-28 23:07:00,,0812.9,5.00,0.00,22.0,21.0,00.0,30.6,23.7,10.3,0000.0,0001.39,0000.47,0000.27
2023-02-28 23:08:00,,0813.2,4.99,0.00,22.0,20.8,00.0,30.6,23.7,10.3,0000.0,0000.91,0000.47,0000.27
2023-02-28 23:09:00,,0813.1,5.00,0.00,21.9,20.7,00.0,30.6,23.7,10.2,0000.0,0000.93,0000.48,0000.28
2023-02-28 23:10:00,,0813.0,5.01,0.00,21.9,20.6,00.0,30.6,23.7,10.2,0000.0,0000.95,0000.50,0000.27
2023-02-28 23:11:00,,0813.0,5.00,0.00,21.9,20.5,00.0,30.6,23.6,10.2,0000.0,0001.08,0000.55,0000.27
2023-02-28 23:12:00,,0813.1,5.00,0.00,21.9,20.4,00.0,30.6,23.6,10.2,0000.0,0001.25,0000.61,0000.27
2023-02-28 23:13:00,,0813.2,5.00,0.00,21.9,20.4,00.0,30.6,23.6,10.2,0000.0,0001.41,0000.67,0000.28
2023-02-28 23:14:00,,0813.0,5.01,0.00,21.9,20.3,00.0,30.6,23.6,10.2,0000.0,0001.86,0000.80,0000.29
2023-02-28 23:15:00,,0813.1,5.01,0.00,21.9,20.3,00.0,30.6,23.6,10.2,0000.0,0002.72,0000.85,0000.29
2023-02-28 23:16:00,,0813.0,4.98,0.00,21.9,20.3,00.0,30.6,23.5,10.2,0000.0,0002.73,0000.84,0000.28
2023-02-28 23:17:00,,0813.3,4.99,0.00,21.8,20.2,00.0,30.6,23.5,10.2,0000.0,0002.78,0000.86,0000.28
2023-02-28 23:18:00,,0813.2,4.99,0.00,21.8,20.2,00.0,30.6,23.5,10.1,0000.0,0002.84,0000.88,0000.28
2023-02-28 23:19:00,,0813.1,4.99,0.00,21.8,20.2,00.0,30.6,23.5,10.2,0000.0,0003.01,0000.94,0000.29
2023-02-28 23:20:00,,0813.4,5.02,0.00,21.8,20.1,00.0,30.6,23.4,10.2,0000.0,0002.95,0000.91,0000.29
2023-02-28 23:21:00,,0813.2,5.00,0.00,21.8,20.0,00.0,30.6,23.4,10.3,0000.0,0002.92,0000.89,0000.29
2023-02-28 23:22:00,,0813.1,5.02,0.00,21.7,20.0,00.0,30.6,23.3,10.4,0000.0,0002.81,0000.85,0000.29
2023-02-28 23:23:00,,0813.1,5.00,0.00,21.7,20.0,00.0,30.5,23.4,10.4,0000.0,0002.65,0000.79,0000.30
2023-02-28 23:24:00,,0813.1,5.01,0.00,21.7,20.5,00.0,30.5,23.5,10.3,0000.0,0002.50,0000.74,0000.29
2023-02-28 23:25:00,,0813.2,5.00,0.00,21.8,21.8,00.0,30.5,23.8,10.1,0000.0,0002.22,0000.67,0000.28
2023-02-28 23:26:00,,0813.3,5.03,0.00,22.0,22.9,00.0,30.5,24.1,09.9,0000.0,0001.31,0000.61,0000.27
2023-02-28 23:27:00,,0813.3,4.97,0.00,22.1,23.3,00.0,30.6,24.2,09.9,0000.0,0002.40,0000.63,0000.28
2023-02-28 23:28:00,,0813.2,5.01,0.00,22.2,22.7,00.0,30.7,24.2,10.1,0000.0,0002.35,0000.59,0000.27
2023-02-28 23:29:00,,0813.2,5.01,0.00,22.2,22.2,00.0,30.7,24.1,10.0,0000.0,0002.29,0000.57,0000.27
2023-02-28 23:30:00,,0813.3,4.99,0.00,22.2,21.8,00.0,30.7,24.0,09.9,0000.0,0002.21,0000.54,0000.26
2023-02-28 23:31:00,,0813.3,5.00,0.00,22.2,21.4,00.0,30.8,23.9,10.0,0000.0,0003.16,0000.57,0000.26
2023-02-28 23:32:00,,0813.3,5.00,0.00,22.2,21.2,00.0,30.8,23.9,09.9,0000.0,0004.07,0000.57,0000.26
2023-02-28 23:33:00,,0813.3,5.01,0.00,22.1,21.0,00.0,30.8,23.9,10.0,0000.0,0004.05,0000.56,0000.26
2023-02-28 23:34:00,,0813.3,5.01,0.00,22.1,20.8,00.0,30.8,23.9,10.0,0000.0,0004.17,0000.58,0000.25
2023-02-28 23:35:00,,0813.3,5.00,0.00,22.1,20.7,00.0,30.8,23.8,10.0,0000.0,0004.36,0000.62,0000.26
2023-02-28 23:36:00,,0813.2,4.99,0.00,22.1,20.6,00.0,30.8,23.8,10.2,0000.0,0004.37,0000.59,0000.26
2023-02-28 23:37:00,,0813.3,4.97,0.00,22.0,20.5,00.0,30.8,23.7,10.1,0000.0,0004.25,0000.59,0000.26
2023-02-28 23:38:00,,0813.3,5.02,0.00,22.0,20.4,00.0,30.8,23.7,10.1,0000.0,0003.32,0000.60,0000.26
2023-02-28 23:39:00,,0813.5,5.00,0.00,22.0,20.3,00.0,30.8,23.6,10.1,0000.0,0003.34,0000.62,0000.26
2023-02-28 23:40:00,,0813.4,4.99,0.00,22.0,20.2,00.0,30.8,23.6,10.2,0000.0,0003.35,0000.63,0000.26
2023-02-28 23:41:00,,0813.4,5.00,0.00,21.9,20.1,00.0,30.8,23.6,10.2,0000.0,0003.32,0000.62,0000.27
2023-02-28 23:42:00,,0813.5,5.00,0.00,21.9,20.1,00.0,30.7,23.5,10.1,0000.0,0002.80,0000.63,0000.27
2023-02-28 23:43:00,,0813.5,5.01,0.00,21.9,20.0,00.0,30.7,23.5,10.0,0000.0,0002.45,0000.65,0000.27
2023-02-28 23:44:00,,0813.5,5.02,0.00,21.8,20.0,00.0,30.7,23.5,10.1,0000.0,0002.44,0000.65,0000.28
2023-02-28 23:45:00,,0813.4,5.00,0.00,21.8,19.9,00.0,30.7,23.5,10.1,0000.0,0002.32,0000.63,0000.28
2023-02-28 23:46:00,,0813.5,5.00,0.00,21.8,19.9,00.0,30.7,23.4,10.0,0000.0,0002.16,0000.61,0000.28
2023-02-28 23:47:00,,0813.6,4.98,0.00,21.8,19.9,00.0,30.6,23.4,10.1,0000.0,0002.21,0000.64,0000.28
2023-02-28 23:48:00,,0813.5,4.99,0.00,21.7,19.9,00.0,30.6,23.3,10.2,0000.0,0002.43,0000.72,0000.28
2023-02-28 23:49:00,,0813.5,5.00,0.00,21.7,19.9,00.0,30.6,23.4,10.1,0000.0,0002.93,0000.68,0000.28
2023-02-28 23:50:00,,0813.5,5.01,0.00,21.7,20.2,00.0,30.6,23.4,10.0,0000.0,0002.96,0000.69,0000.29
2023-02-28 23:51:00,,0813.5,5.03,0.00,21.8,21.3,00.0,30.6,23.7,09.9,0000.0,0003.06,0000.73,0000.30
2023-02-28 23:52:00,,0813.6,5.00,0.00,21.9,22.4,00.0,30.6,24.0,09.9,0000.0,0003.01,0000.72,0000.31
2023-02-28 23:53:00,,0813.6,5.00,0.00,22.0,22.3,00.0,30.6,24.0,09.8,0000.0,0002.61,0000.72,0000.30
2023-02-28 23:54:00,,0813.5,5.01,0.00,22.0,21.8,00.0,30.7,23.9,09.7,0000.0,0002.03,0000.67,0000.30
2023-02-28 23:55:00,,0813.6,5.02,0.00,22.0,21.4,00.0,30.7,23.8,09.8,0000.0,0002.01,0000.66,0000.30
2023-02-28 23:56:00,,0813.5,5.00,0.00,22.0,21.0,00.0,30.7,23.7,09.8,0000.0,0001.99,0000.66,0000.29
2023-02-28 23:57:00,,0813.5,5.00,0.00,22.0,20.7,00.0,30.7,23.6,09.8,0000.0,0001.99,0000.65,0000.29
2023-02-28 23:58:00,,0813.5,4.99,0.00,21.9,20.5,00.0,30.7,23.6,09.8,0000.0,0002.89,0000.64,0000.29
2023-02-28 23:59:00,,0813.5,4.99,0.00,21.9,20.3,00.0,30.7,23.5,09.7,0000.0,0002.75,0000.57,0000.29
